Regional Weather Roundup
Issued by NWS

Home | Current Version | Previous Version | Graphics & Text | Print | Product List | Glossary On
Versions: 1 2 3 4 5 6 7 8 9 10 11 12 13 14 15 16 17 18 19 20 21 22 23 24 25 26 27 28 29 30 31 32 33 34 35 36 37 38 39 40 41 42 43 44 45 46 47 48 49 50
000
ASUS43 KIND 261600
RWRIN

WEATHER ROUNDUP FOR INDIANA
NATIONAL WEATHER SERVICE INDIANAPOLIS IN
1200 PM EDT WED JUL 26 2017

NOTE: "FAIR" INDICATES FEW OR NO CLOUDS BELOW 12,000 FEET WITH NO
SIGNIFICANT WEATHER AND/OR OBSTRUCTIONS TO VISIBILITY.

* - STATION DOES NOT REPORT WEATHER SUCH AS PRECIPITATION OR FOG.

+ - STATION NOT QUALITY CONTROLLED BY THE NATIONAL WEATHER SERVICE.
    USE DATA WITH CAUTION...ESPECIALLY DEWPOINT AND RELATIVE
    HUMIDITY OBSERVATIONS.

INZ001>003-010>013-019-020-261700-
NORTHWEST INDIANA

CITY           SKY/WX    TMP DP  RH WIND       PRES   REMARKS
GARY /AIRPORT/ PTSUNNY   81  63  54 S8        30.09F
MICHIGAN CITY+ MOSUNNY   77  64  65 S7        30.10F
MONTICELLO +   SUNNY     76  66  71 SE3       30.11F
RENSSELAER +   MOSUNNY   77  66  69 S5        30.11S

$$

LMZ046-743>745-261700-
SOUTHERN LAKE MICHIGAN

STATION/POSITION TIME  TEMP    WIND        PRES    WAVE
                       AIR SEA DIR/SP/G            HT
                 (UTC) (F)     (DEG/KT/KT) (MB)    (FT)
BURNS HARBOR     1540   77     190/  8/ 12 1019.3F
MICHIGAN CITY    1530   73     170/ 11/ 12   N/A
5NW MICH CITY    1550   74 74  190/  8/ 12   N/A     1

$$

INZ004-005-014>016-021>024-261700-
NORTH CENTRAL INDIANA

CITY           SKY/WX    TMP DP  RH WIND       PRES   REMARKS
ELKHART        CLOUDY    75  63  64 SW7       30.12F
GOSHEN         MOSUNNY   75  62  64 S8        30.13S
SOUTH BEND     PTSUNNY   75  65  70 S7        30.12S

$$

INZ006>009-017-018-025>027-261700-
NORTHEAST INDIANA

CITY           SKY/WX    TMP DP  RH WIND       PRES   REMARKS
FORT WAYNE     PTSUNNY   75  63  66 VRB7      30.15R
KENDALLVILLE + PTSUNNY   74  64  69 S6        30.15S

$$

INZ028-029-035-036-043>045-051>053-261700-
WEST CENTRAL INDIANA

CITY           SKY/WX    TMP DP  RH WIND       PRES   REMARKS
LAFAYETTE      SUNNY     79  69  71 CALM      30.10F
TERRE HAUTE    SUNNY     80  69  69 SE6       30.11R

$$

INZ030>032-037>040-046>048-054>057-064-065-261700-
CENTRAL INDIANA

CITY           SKY/WX    TMP DP  RH WIND       PRES   REMARKS
GREENWOOD *+   SUNNY    N/A N/A N/A E3        30.14S
INDIANAPOLIS   CLOUDY    78  66  66 CALM      30.13R
-EAGLE CREEK   MOSUNNY   79  65  62 E5        30.12S
KOKOMO +       MOSUNNY   76  67  73 S7        30.14F
MT COMFORT *+  SUNNY     75  66  73 S6        30.14S
SHELBYVILLE    SUNNY     80  65  59 E3        30.13S

$$

INZ033-034-041-042-049-050-058-059-261700-
EAST CENTRAL INDIANA

CITY           SKY/WX    TMP DP  RH WIND       PRES   REMARKS
MUNCIE         SUNNY     79  63  57 VRB3      30.14S
RICHMOND +     SUNNY     72  63  73 CALM      30.17S

$$

INZ060-061-067>069-081>083-085>088-261700-
SOUTHWEST INDIANA

CITY           SKY/WX    TMP DP  RH WIND       PRES   REMARKS
EVANSVILLE     MOSUNNY   76  72  87 SE7       30.09S
HUNTINGBURG *+ MOSUNNY   83  73  72 S5        30.11S

$$

INZ062-063-066-070>080-084-089>092-261700-
SOUTH CENTRAL AND SOUTHEAST INDIANA

CITY           SKY/WX    TMP DP  RH WIND       PRES   REMARKS
BLOOMINGTON    MOSUNNY   82  67  60 SE6       30.12S
MADISON *+     SUNNY     81  64  57 SE3       30.16S
SEYMOUR +      SUNNY     81  66  61 SE5       30.12F

$$





USA.gov is the U.S. government's official web portal to all federal, state and local government web resources and services.